Stations météo

réclame
Mon MeteoGroup
Berlin/Tegel, Allemagne (10382): Température de l'air & dewpoint: 18.05.2019 03:00:00 - 24.05.2019 03:00:00 (CEST)Berlin/Tegel, Allemagne (10382): Température de l'air 5cm & Température de l'air -5cm: 18.05.2019 03:00:00 - 24.05.2019 03:00:00 (CEST)Berlin/Tegel, Allemagne (10382): Température de l'air -20cm & Température de l'air -100cm: 18.05.2019 03:00:00 - 24.05.2019 03:00:00 (CEST)Berlin/Tegel, Allemagne (10382): Vitesse du vent & gusts: 18.05.2019 03:00:00 - 24.05.2019 03:00:00 (CEST)Berlin/Tegel, Allemagne (10382): Direction du vent: 18.05.2019 03:00:00 - 24.05.2019 03:00:00 (CEST)Berlin/Tegel, Allemagne (10382): reduced air pressure: 18.05.2019 03:00:00 - 24.05.2019 03:00:00 (CEST)Berlin/Tegel, Allemagne (10382): visibility: 18.05.2019 03:00:00 - 24.05.2019 03:00:00 (CEST)Berlin/Tegel, Allemagne (10382): Ensoleillement: 18.05.2019 03:00:00 - 24.05.2019 03:00:00 (CEST)Berlin/Tegel, Allemagne (10382): Quantités de précipitations: 18.05.2019 03:00:00 - 24.05.2019 03:00:00 (CEST)
Date & Time tt [°C] td [°C] tt 5cm [°C] tt -5cm [°C] tt -20cm [°C] tt -100cm [°C] ff [km/h] ff [knt] fx [km/h] fx [knt] dd ppp [hPa] vv [km] sd [min] rr [mm]
24.05.2019 03:00:00 10,5 8,1 5,4 12,6 16,4 14,4 2 1 4 2 W 1016,5 50 0 0,0
24.05.2019 02:00:00 11,2 7,9 6,1 13,3 16,9 14,4 4 2 5 3 - 1016,8 10 0 0,0
24.05.2019 01:00:00 11,4 7,8 6,9 14,1 17,3 14,4 2 1 4 2 - 1017,0 10 0 0,0
24.05.2019 00:00:00 12,9 7,7 8,9 15,1 17,8 14,4 4 2 5 3 - 1017,2 10 0 0,0
23.05.2019 23:00:00 15,1 7,4 12,2 16,2 18,2 14,4 6 4 9 5 ESE 1017,3 50 0 0,0
23.05.2019 22:00:00 16,0 6,9 11,7 17,4 18,6 14,5 5 3 8 4 E 1017,5 10 0 0,0
23.05.2019 21:00:00 17,1 5,9 14,6 18,9 18,9 14,5 5 3 13 7 ENE 1017,3 10 0 0,0
23.05.2019 20:00:00 18,0 5,7 17,0 20,5 19,0 14,5 8 4 18 10 NNE 1017,1 50 38 0,0
23.05.2019 19:00:00 18,7 6,1 19,3 22,0 19,0 14,5 9 5 16 9 N 1017,1 50 48 0,0
23.05.2019 18:00:00 18,4 5,4 20,1 23,5 18,6 14,5 9 5 22 12 - 1017,2 10 50 0,0
23.05.2019 17:00:00 19,0 6,4 22,2 24,0 18,2 14,6 8 5 23 12 N 1017,3 50 45 0,0
23.05.2019 16:00:00 18,0 6,2 23,9 24,5 17,6 14,6 13 7 26 14 WNW 1017,7 10 60 0,0
23.05.2019 15:00:00 17,4 5,4 24,1 23,6 17,0 14,6 12 6 29 16 NW 1018,2 50 60 0,0
23.05.2019 14:00:00 17,1 6,8 23,4 23,3 16,3 14,6 15 8 26 14 W 1018,6 10 60 0,0
23.05.2019 13:00:00 15,9 5,6 22,8 22,7 15,5 14,6 18 10 36 19 W 1018,8 50 60 0,0
23.05.2019 12:00:00 15,7 5,7 25,6 21,3 14,8 14,6 15 8 31 17 WNW 1019,0 10 60 0,0
23.05.2019 11:00:00 14,8 7,7 24,0 19,3 14,1 14,6 13 7 24 13 W 1019,0 10 55 0,0
23.05.2019 10:00:00 12,9 6,7 20,5 16,9 13,6 14,6 13 7 25 13 W 1019,1 10 60 0,0
23.05.2019 09:00:00 11,5 7,3 17,4 14,5 13,4 14,6 13 7 21 11 WNW 1019,0 30 60 0,0
23.05.2019 08:00:00 10,4 7,0 16,6 12,0 13,5 14,6 10 5 16 9 WNW 1018,8 25 60 0,0
23.05.2019 07:00:00 8,5 6,7 12,4 10,4 13,7 14,6 8 4 14 8 WNW 1018,5 10 18 0,0
23.05.2019 06:00:00 8,3 6,9 6,7 10,7 13,9 14,7 9 5 21 11 W 1018,2 10 0 0,0
23.05.2019 05:00:00 9,6 7,0 8,9 11,2 14,1 14,7 11 6 21 11 NW 1017,9 10 0 0,0
23.05.2019 04:00:00 10,3 7,3 9,2 11,6 14,3 14,7 11 6 25 13 NW 1017,9 10 0 0,0
23.05.2019 03:00:00 11,1 7,8 10,4 11,9 14,5 14,7 11 6 24 13 WNW 1017,6 10 0 0,0
23.05.2019 02:00:00 11,3 7,9 10,4 12,3 14,7 14,7 13 7 26 14 WNW 1017,6 35 0 0,0
23.05.2019 01:00:00 11,6 8,1 11,0 12,6 14,9 14,7 15 8 22 12 WNW 1017,3 35 0 0,0
23.05.2019 00:00:00 12,0 8,1 11,3 12,8 15,1 14,7 13 7 21 11 WNW 1017,0 10 0 0,0
22.05.2019 23:00:00 12,4 8,0 11,7 13,0 15,3 14,7 13 7 28 15 NW 1016,9 10 0 0,0
22.05.2019 22:00:00 12,8 8,3 12,1 13,3 15,4 14,7 16 9 29 16 WNW 1016,5 10 0 0,0
22.05.2019 21:00:00 12,8 9,1 12,4 13,7 15,6 14,7 18 10 28 15 WNW 1015,7 10 0 0,0
22.05.2019 20:00:00 12,7 9,7 12,5 13,9 15,7 14,7 13 7 37 20 WNW 1015,3 25 0 0,0
22.05.2019 19:00:00 12,8 9,5 12,6 14,1 15,9 14,6 21 11 36 20 NW 1015,0 25 0 0,0
22.05.2019 18:00:00 12,7 10,0 12,6 14,4 16,0 14,6 15 8 39 21 WNW 1014,7 10 0 0,0
22.05.2019 17:00:00 12,4 10,2 12,2 14,6 16,2 14,6 21 11 37 20 WNW 1014,4 10 0 0,0
22.05.2019 16:00:00 12,5 10,3 12,2 14,8 16,3 14,6 18 10 36 20 NW 1014,1 10 0 0,1
22.05.2019 15:00:00 12,6 10,4 13,1 15,0 16,4 14,6 18 10 38 20 WNW 1013,7 10 0 0,0
22.05.2019 14:00:00 12,4 10,7 13,1 15,3 16,5 14,6 21 12 39 21 WNW 1013,5 13 0 0,0
22.05.2019 13:00:00 12,6 10,7 13,4 15,4 16,6 14,6 21 11 38 20 WNW 1013,0 15 0 0,0
22.05.2019 12:00:00 12,3 10,6 13,2 15,3 16,7 14,6 21 11 38 21 WNW 1012,6 10 0 0,0
22.05.2019 11:00:00 11,9 10,5 12,6 15,2 16,8 14,6 21 11 41 22 WNW 1012,1 10 0 0,0
22.05.2019 10:00:00 12,0 10,3 12,4 15,0 17,0 14,5 22 12 41 22 WNW 1011,7 25 0 0,1
22.05.2019 09:00:00 12,1 10,7 12,1 15,0 17,2 14,5 21 11 43 23 WNW 1011,3 10 0 0,2
22.05.2019 08:00:00 12,2 11,3 12,2 15,3 17,5 14,5 21 11 35 19 WNW 1010,9 20 0 0,0
22.05.2019 07:00:00 12,6 11,8 12,5 15,5 17,7 14,5 16 9 40 21 WNW 1010,5 6 0 0,0
22.05.2019 06:00:00 13,1 12,4 13,1 15,9 18,0 14,5 20 11 35 19 WNW 1010,1 3,5 0 0,0
22.05.2019 05:00:00 13,5 12,6 13,4 16,3 18,3 14,4 15 8 31 17 WNW 1009,6 9 0 0,0
22.05.2019 04:00:00 13,9 13,0 13,8 16,6 18,5 14,4 13 7 31 17 WNW 1009,4 12 0 0,0
22.05.2019 03:00:00 14,3 13,3 14,1 17,0 18,8 14,4 18 10 31 17 WNW 1009,0 8 0 0,0
22.05.2019 02:00:00 15,3 14,5 15,0 17,4 19,1 14,4 18 10 34 18 WNW 1008,7 8 0 0,2
22.05.2019 01:00:00 15,5 14,8 15,1 17,7 19,4 14,4 7 4 18 10 W 1008,6 10 0 0,7
22.05.2019 00:00:00 15,6 15,2 15,4 18,0 19,8 14,4 11 6 20 11 WNW 1008,3 10 0 2,9
21.05.2019 23:00:00 16,4 14,0 15,3 18,7 20,2 14,4 9 5 27 14 N 1008,6 10 0 0,6
21.05.2019 22:00:00 18,3 13,6 17,3 19,2 20,6 14,4 10 6 22 12 WNW 1007,7 35 0 0,0
21.05.2019 21:00:00 18,8 13,2 17,1 20,1 21,0 14,4 12 7 16 9 W 1006,8 35 1 0,0
21.05.2019 20:00:00 20,3 12,5 19,1 21,5 21,3 14,3 11 6 23 13 NW 1006,1 45 30 0,0
21.05.2019 19:00:00 21,4 11,5 22,3 22,6 21,5 14,3 10 5 23 12 WNW 1005,7 45 22 0,0
21.05.2019 18:00:00 21,2 12,0 21,6 24,7 21,5 14,3 16 9 31 17 NW 1005,5 10 21 0,0
21.05.2019 17:00:00 23,5 13,1 28,6 25,9 21,2 14,3 16 9 23 13 W 1005,2 10 40 0,0
21.05.2019 16:00:00 23,9 12,8 31,2 26,6 20,9 14,3 11 6 22 12 WNW 1005,2 10 29 0,0
21.05.2019 15:00:00 22,2 10,6 26,4 26,1 20,4 14,3 8 4 16 9 WNW 1005,1 10 25 0,0
21.05.2019 14:00:00 21,8 11,0 28,6 26,4 19,8 14,3 9 5 18 10 NNW 1005,2 10 33 0,0
21.05.2019 13:00:00 21,8 12,6 31,5 26,3 19,1 14,3 8 4 16 9 - 1005,0 10 33 0,0
21.05.2019 12:00:00 21,8 11,7 32,8 25,8 18,3 14,2 9 5 15 8 SSW 1004,8 40 46 0,0
21.05.2019 11:00:00 20,7 12,8 28,3 23,9 17,6 14,2 5 3 11 6 NNW 1004,6 10 52 0,0
21.05.2019 10:00:00 18,8 12,6 26,2 21,6 17,0 14,2 4 2 18 10 - 1004,4 10 60 0,0
21.05.2019 09:00:00 17,1 13,0 22,9 18,6 16,8 14,2 5 3 15 8 E 1004,2 30 59 0,0
21.05.2019 08:00:00 14,8 12,6 18,8 16,0 16,9 14,1 6 4 13 7 ENE 1004,0 16 57 0,0
21.05.2019 07:00:00 12,8 12,2 13,1 14,7 17,1 14,1 7 4 13 7 NE 1003,9 5 2 0,0
21.05.2019 06:00:00 12,8 12,6 12,3 14,4 17,5 14,1 9 5 14 8 NNE 1003,7 1,4 0 0,0
21.05.2019 05:00:00 13,5 13,0 12,2 14,7 17,8 14,1 5 3 9 5 NNE 1003,2 10 0 0,0
21.05.2019 04:00:00 13,5 13,2 9,7 15,3 18,2 14,0 2 1 8 4 - 1003,0 10 0 0,0
21.05.2019 03:00:00 14,6 13,8 13,2 15,9 18,6 14,0 5 3 11 6 NE 1002,8 10 0 0,0
21.05.2019 02:00:00 14,8 14,1 13,6 16,5 19,0 14,0 5 3 10 6 ENE 1002,8 10 0 0,0
21.05.2019 01:00:00 15,4 14,5 14,3 17,1 19,4 14,0 8 4 11 6 ENE 1002,4 10 0 0,0
21.05.2019 00:00:00 16,2 14,7 14,3 17,9 19,8 13,9 8 4 22 12 E 1002,4 10 0 0,0
20.05.2019 23:00:00 16,8 15,6 16,1 18,7 20,2 13,9 13 7 25 14 ESE 1002,1 20 0 0,0
20.05.2019 22:00:00 17,5 16,2 17,2 19,5 20,5 13,9 14 7 24 13 ESE 1001,5 10 0 0,0
20.05.2019 21:00:00 17,1 16,0 17,1 20,2 20,9 13,9 13 7 26 14 NE 1001,2 6 0 0,0
20.05.2019 20:00:00 17,7 16,1 16,9 20,9 21,2 13,8 13 7 28 15 N 1001,0 10 17 0,0
20.05.2019 19:00:00 18,3 16,7 18,3 21,2 21,7 13,8 5 3 36 19 N 1000,9 17 3 3,3
20.05.2019 18:00:00 17,2 16,4 17,1 22,1 22,0 13,8 9 5 74 40 NE 1001,6 9 0 11,8
20.05.2019 17:00:00 21,4 15,1 18,4 25,4 22,0 13,8 11 6 24 13 NE 1001,0 6 0 0,2
20.05.2019 16:00:00 23,5 13,3 24,1 27,4 21,7 13,8 11 6 27 14 NE 1001,1 10 2 0,0
20.05.2019 15:00:00 24,4 12,7 27,8 27,6 21,3 13,7 16 8 27 15 NE 1001,5 40 2 0,0
20.05.2019 14:00:00 23,8 12,4 25,3 27,7 20,7 13,7 16 9 31 17 ENE 1002,2 10 2 0,0
20.05.2019 13:00:00 24,3 11,9 29,8 28,4 19,9 13,7 18 10 35 19 ENE 1002,3 40 47 0,0
20.05.2019 12:00:00 23,9 12,8 29,6 27,1 19,2 13,6 16 9 29 16 ENE 1002,5 35 55 0,0
20.05.2019 11:00:00 22,4 12,7 28,6 24,9 18,6 13,6 15 8 27 14 NE 1002,9 35 60 0,0
20.05.2019 10:00:00 20,5 13,3 24,9 22,5 18,2 13,6 13 7 22 12 NE 1003,1 10 60 0,0
20.05.2019 09:00:00 18,5 13,4 23,4 19,7 18,1 13,5 11 6 19 10 NE 1003,3 35 54 0,0
20.05.2019 08:00:00 16,5 12,8 18,6 17,8 18,3 13,5 13 7 21 11 ENE 1003,6 30 48 0,0
20.05.2019 07:00:00 15,4 12,8 16,8 17,0 18,6 13,5 9 5 18 10 NE 1003,3 10 55 0,0
20.05.2019 06:00:00 14,7 12,9 13,9 16,9 18,9 13,4 10 5 16 9 NE 1003,5 18 0 0,0
20.05.2019 05:00:00 14,9 13,1 13,6 17,3 19,3 13,4 8 4 15 8 NE 1003,5 18 0 0,0
20.05.2019 04:00:00 15,2 13,3 13,3 17,7 19,6 13,4 5 3 9 5 ENE 1003,8 25 0 0,0
20.05.2019 03:00:00 15,8 13,4 14,1 18,4 20,0 13,3 6 4 14 8 ENE 1003,9 25 0 0,0
20.05.2019 02:00:00 16,6 13,5 14,7 19,1 20,4 13,3 8 4 13 7 NE 1003,9 30 0 0,0
20.05.2019 01:00:00 17,7 13,7 14,6 19,9 20,8 13,3 5 3 9 5 N 1004,2 10 0 0,0
20.05.2019 00:00:00 18,4 14,2 16,0 20,9 21,2 13,3 5 3 9 5 NNW 1004,6 10 0 0,0
19.05.2019 23:00:00 19,4 14,2 18,5 21,5 21,6 13,3 8 4 16 9 NE 1004,5 10 0 0,0
19.05.2019 22:00:00 20,0 14,4 18,7 22,4 21,9 13,2 8 4 22 12 ENE 1004,4 10 0 0,0
19.05.2019 21:00:00 21,1 13,9 19,9 23,6 22,2 13,2 13 7 27 14 NE 1004,3 10 0 0,0
19.05.2019 20:00:00 21,9 14,2 21,0 24,9 22,4 13,2 11 6 23 13 NE 1003,9 10 9 0,0
19.05.2019 19:00:00 22,4 12,2 22,6 26,3 22,4 13,2 11 6 22 12 NE 1004,0 10 4 0,0
19.05.2019 18:00:00 22,1 12,9 21,6 28,4 22,2 13,2 12 7 31 17 ENE 1004,3 35 29 0,0
19.05.2019 17:00:00 22,9 11,6 23,9 29,1 21,8 13,1 15 8 41 22 ENE 1004,5 10 32 0,0
19.05.2019 16:00:00 23,8 11,8 26,1 30,4 21,1 13,1 22 12 40 21 ENE 1004,8 10 49 0,0
19.05.2019 15:00:00 24,2 10,4 26,9 29,8 20,3 13,1 18 10 36 20 E 1004,9 10 44 0,0
19.05.2019 14:00:00 25,1 9,7 32,1 29,3 19,4 13,1 21 11 36 19 E 1005,2 10 47 0,0
19.05.2019 13:00:00 24,0 10,4 30,7 28,6 18,4 13,1 18 10 35 19 E 1005,5 10 60 0,0
19.05.2019 12:00:00 23,4 9,7 30,3 26,4 17,5 13,0 18 10 36 20 E 1005,9 10 60 0,0
19.05.2019 11:00:00 23,0 9,2 28,0 24,2 16,8 13,0 18 10 34 18 E 1006,1 10 60 0,0
19.05.2019 10:00:00 21,1 9,9 25,9 21,4 16,3 13,0 13 7 24 13 E 1006,6 10 60 0,0
19.05.2019 09:00:00 18,9 10,3 23,4 18,2 16,1 12,9 10 5 13 7 ESE 1006,9 40 59 0,0
19.05.2019 08:00:00 16,5 10,1 17,9 15,9 16,1 12,9 9 5 13 7 E 1006,9 10 53 0,0
19.05.2019 07:00:00 15,1 9,6 17,0 14,4 16,4 12,9 6 3 9 5 E 1007,0 40 46 0,0
19.05.2019 06:00:00 12,0 8,9 10,4 14,0 16,8 12,9 8 4 13 7 ESE 1006,9 45 0 0,0
19.05.2019 05:00:00 12,8 9,2 10,4 14,3 17,2 12,8 5 3 10 6 NE 1006,8 10 0 0,0
19.05.2019 04:00:00 12,8 9,6 7,8 14,8 17,7 12,8 4 2 11 6 ENE 1006,9 45 0 0,0
19.05.2019 03:00:00 11,5 9,2 7,1 15,5 18,2 12,8 2 1 4 2 - 1007,0 10 0 0,0
19.05.2019 02:00:00 12,9 10,2 8,1 16,3 18,7 12,8 2 1 9 5 - 1007,0 10 0 0,0
19.05.2019 01:00:00 14,6 9,8 9,4 17,3 19,2 12,8 5 3 11 6 ENE 1007,3 10 0 0,0
19.05.2019 00:00:00 14,7 10,1 9,2 18,4 19,7 12,8 4 2 4 2 - 1007,1 10 0 0,0
18.05.2019 23:00:00 16,0 9,9 10,4 19,6 20,2 12,8 3 2 4 2 NNE 1007,3 45 0 0,0
18.05.2019 22:00:00 17,3 9,0 13,3 21,2 20,6 12,7 2 1 9 5 - 1007,0 10 0 0,0
18.05.2019 21:00:00 21,0 8,0 16,2 23,1 20,8 12,7 5 3 15 8 S 1006,4 10 22 0,0
18.05.2019 20:00:00 22,8 7,9 21,3 24,8 20,8 12,7 10 5 18 10 SSE 1006,0 45 60 0,0
18.05.2019 19:00:00 23,4 7,2 24,4 26,2 20,5 12,7 13 7 26 14 SSE 1005,9 10 60 0,0
18.05.2019 18:00:00 24,1 7,8 26,6 27,9 20,0 12,7 14 8 31 17 SSE 1005,9 45 59 0,0
18.05.2019 17:00:00 24,7 7,2 28,6 28,2 19,4 12,7 14 8 35 19 SSE 1005,9 45 58 0,0
18.05.2019 16:00:00 23,7 7,5 28,2 27,1 18,8 12,7 21 11 36 19 SE 1006,2 10 36 0,0
18.05.2019 15:00:00 23,4 8,6 28,3 27,0 18,0 12,7 17 9 38 21 SSE 1006,6 45 33 0,0
18.05.2019 14:00:00 21,8 10,0 23,8 26,7 17,1 12,7 22 12 37 20 E 1007,1 10 31 0,0
18.05.2019 13:00:00 22,3 9,0 27,9 26,3 16,0 12,7 24 13 42 23 E 1007,4 10 55 0,0
18.05.2019 12:00:00 20,9 9,2 25,4 24,1 15,1 12,7 24 13 40 22 E 1007,9 40 60 0,0
18.05.2019 11:00:00 19,7 9,5 23,8 21,4 14,3 12,7 24 13 37 20 ESE 1008,4 10 60 0,0
18.05.2019 10:00:00 17,4 9,1 21,9 18,4 13,8 12,7 13 7 24 13 ESE 1009,0 40 60 0,0
18.05.2019 09:00:00 16,2 9,6 19,5 15,7 13,5 12,7 15 8 22 12 ESE 1009,4 30 60 0,0
18.05.2019 08:00:00 14,0 10,2 16,9 13,2 13,5 12,6 13 7 17 9 ESE 1009,3 18 60 0,0
18.05.2019 07:00:00 12,8 10,4 13,1 11,6 13,8 12,6 5 3 10 5 E 1009,3 10 57 0,0
18.05.2019 06:00:00 11,0 9,9 9,3 11,3 14,1 12,6 5 3 11 6 ENE 1009,4 15 0 0,0
18.05.2019 05:00:00 11,1 10,1 8,8 11,8 14,5 12,6 5 3 9 5 ENE 1009,4 15 0 0,0
18.05.2019 04:00:00 11,8 10,2 9,6 12,3 14,8 12,6 5 3 9 5 ENE 1009,5 10 0 0,0
18.05.2019 03:00:00 12,5 10,4 10,1 13,0 15,2 12,6 6 3 11 6 ENE 1009,5 35 0 0,0

tt = Température de l'air
td = dewpoint
tt 5cm = Température de l'air 5cm
tt -5cm = Température de l'air -5cm
tt -20cm = Température de l'air -20cm
tt -100cm = Température de l'air -100cm
ff = Vitesse du vent
fx = gusts
dd = Direction du vent
ppp = reduced air pressure
vv = visibility
sd = Ensoleillement
rr = Quantités de précipitations

stations d'obs. à proximité